MDT,Max TemperatureF,Mean TemperatureF,Min TemperatureF,Max Dew PointF,MeanDew PointF,Min DewpointF,Max Humidity, Mean Humidity, Min Humidity, Max Sea Level PressureIn, Mean Sea Level PressureIn, Min Sea Level PressureIn, Max VisibilityMiles, Mean VisibilityMiles, Min VisibilityMiles, Max Wind SpeedMPH, Mean Wind SpeedMPH, Max Gust SpeedMPH,PrecipitationIn, CloudCover, Events, WindDirDegrees
2014-4-1,44,36,27,37,30,24,96,80,64,29.81,29.73,29.67,10,7,0,28,9,32,0.37,6,Fog-Snow,222
2014-4-2,44,35,26,32,28,24,92,71,49,29.96,29.86,29.79,10,10,10,17,8,21,T,5,,224
2014-4-3,50,40,30,34,30,24,100,70,39,30.13,30.04,29.94,10,10,7,14,6,17,T,5,Rain-Snow,227
2014-4-4,56,44,32,34,29,21,85,57,28,30.06,29.94,29.87,10,10,10,24,8,32,0.01,3,Rain,190
2014-4-5,55,44,32,35,29,22,92,61,30,30.02,29.96,29.89,10,10,10,28,14,34,T,4,,237
2014-4-6,59,48,36,36,31,27,76,56,35,30.19,30.06,29.99,10,10,10,35,19,42,T,5,Rain,236
2014-4-7,62,45,28,32,29,27,85,56,27,30.33,30.27,30.20,10,10,10,18,9,26,0.00,0,,211
2014-4-8,71,52,33,39,32,30,82,52,22,30.26,30.15,29.99,10,10,10,18,5,22,0.00,0,,244
2014-4-9,71,56,41,38,32,29,62,43,23,29.98,29.92,29.87,10,10,10,32,16,41,0.00,2,,240
2014-4-10,64,50,35,35,29,19,82,51,19,30.07,30.01,29.94,10,10,10,29,16,36,0.00,0,,229
2014-4-11,71,53,34,29,27,24,70,44,18,30.00,29.89,29.74,10,10,10,30,14,36,0.00,1,,223
2014-4-12,64,54,43,33,24,7,65,39,13,29.75,29.70,29.63,10,10,10,32,19,40,T,1,,234
2014-4-13,51,42,33,36,18,2,70,45,20,30.29,30.00,29.75,10,10,10,30,17,39,T,4,Rain,34
2014-4-14,58,37,16,14,8,2,67,39,10,30.40,30.27,30.07,10,10,10,21,9,26,0.00,0,,230
2014-4-15,63,50,36,22,15,8,48,31,14,30.04,29.85,29.73,10,10,5,47,21,54,0.00,2,,203
2014-4-16,57,41,24,21,14,7,74,44,14,30.05,30.00,29.95,10,10,10,18,7,24,0.00,0,,257
2014-4-17,68,49,29,25,21,14,63,40,17,30.03,29.89,29.64,10,10,10,32,11,39,T,0,,186
2014-4-18,60,52,43,42,32,15,89,56,22,29.98,29.88,29.71,10,10,10,35,21,40,0.05,4,Rain,224
2014-4-19,71,49,27,30,21,7,75,44,13,30.03,29.96,29.86,10,10,10,23,6,29,0.00,1,,221
2014-4-20,64,53,41,31,20,11,45,30,14,30.22,30.10,29.85,10,10,10,31,18,37,0.00,0,,224
2014-4-21,74,52,29,28,21,15,58,36,14,30.24,30.06,29.84,10,10,10,23,9,29,0.00,1,,146
2014-4-22,73,56,38,43,37,30,92,57,22,29.83,29.66,29.47,10,9,3,38,19,50,0.40,7,Rain,205
2014-4-23,54,44,33,34,26,21,85,58,30,30.04,29.96,29.77,10,10,10,33,20,40,T,4,Snow,230
2014-4-24,58,48,37,41,30,23,89,61,32,30.01,29.94,29.86,10,10,10,35,14,43,0.02,4,Rain,205
2014-4-25,55,48,40,46,41,37,96,78,59,29.87,29.68,29.55,10,9,4,24,8,27,0.29,8,Rain-Thunderstorm,217
2014-4-26,49,43,37,40,36,25,93,74,54,29.73,29.58,29.53,10,10,5,32,17,39,0.20,7,Rain,229
2014-4-27,54,44,33,34,29,24,85,60,35,29.93,29.81,29.73,10,10,10,37,19,43,0.00,3,,233
2014-4-28,49,38,27,32,26,22,92,63,34,30.39,30.15,29.93,10,10,2,28,13,33,0.03,4,Snow,220
2014-4-29,57,41,24,24,19,14,88,54,20,30.56,30.50,30.43,10,10,10,25,12,35,0.00,1,,31
2014-4-30,67,47,27,28,21,14,78,46,14,30.55,30.44,30.30,10,10,10,21,7,26,0.00,0,,61